[Date Prev][Date Next][Thread Prev][Thread Next] - [Date Index][Thread Index][Author Index]
2 Line ISS Keps 8-16
- Subject: [sarex] 2 Line ISS Keps 8-16
- From: "Dave Larsen PhD" <doc@xxxxxxxxxxx>
- Date: Thu, 16 Aug 2001 03:42:56 -0700
ISS
1 25544U 98067A 01228.23080697 .00199633 00000-0 25626-2 0 3514
2 25544 51.6377 145.9610 0009483 13.4821 129.2874 15.57875317156453
----
Via the sarex mailing list at AMSAT.ORG courtesy of AMSAT-NA.
To unsubscribe, send "unsubscribe sarex" to Majordomo@amsat.org
AMSAT Home